TimeCDT,TemperatureF,Dew PointF,Humidity,Sea Level PressureIn,VisibilityMPH,Wind Direction,Wind SpeedMPH,Gust SpeedMPH,PrecipitationIn,Events,Conditions,WindDirDegrees,DateUTC
12:55 AM,60.8,45.1,56,30.09,10.0,SE,8.1,-,N/A,,Scattered Clouds,140,2011-10-06 05:55:00
1:55 AM,58.3,46.2,64,30.10,10.0,SSE,8.1,-,N/A,,Scattered Clouds,160,2011-10-06 06:55:00
2:59 AM,57.2,46.4,67,30.15,10.0,SE,5.8,-,N/A,,Scattered Clouds,140,2011-10-06 07:59:00
3:55 AM,57.2,47.3,69,30.09,10.0,SE,6.9,-,N/A,,Scattered Clouds,140,2011-10-06 08:55:00
4:55 AM,55.8,47.5,74,30.09,10.0,SSE,5.8,-,N/A,,Scattered Clouds,150,2011-10-06 09:55:00
5:55 AM,54.7,48.0,78,30.09,10.0,SSE,5.8,-,N/A,,Scattered Clouds,150,2011-10-06 10:55:00
6:55 AM,55.6,48.4,77,30.10,10.0,SSE,6.9,-,N/A,,Partly Cloudy,150,2011-10-06 11:55:00
7:55 AM,59.2,49.3,70,30.11,10.0,SSE,9.2,-,N/A,,Partly Cloudy,160,2011-10-06 12:55:00
8:55 AM,64.0,50.0,60,30.12,10.0,SSE,9.2,-,N/A,,Partly Cloudy,160,2011-10-06 13:55:00
9:55 AM,70.7,50.7,49,30.12,10.0,South,12.7,-,N/A,,Partly Cloudy,170,2011-10-06 14:55:00
10:55 AM,75.2,50.2,41,30.12,10.0,South,12.7,-,N/A,,Partly Cloudy,170,2011-10-06 15:55:00
11:55 AM,79.0,49.6,36,30.10,10.0,South,10.4,-,N/A,,Scattered Clouds,190,2011-10-06 16:55:00
12:55 PM,81.5,48.6,32,30.09,10.0,South,16.1,-,N/A,,Mostly Cloudy,170,2011-10-06 17:55:00
1:55 PM,82.8,47.5,29,30.06,10.0,South,13.8,-,N/A,,Mostly Cloudy,190,2011-10-06 18:55:00
2:55 PM,84.6,45.3,25,30.04,10.0,South,15.0,23.0,N/A,,Clear,170,2011-10-06 19:55:00
3:55 PM,85.1,43.3,23,30.02,10.0,South,18.4,25.3,N/A,,Clear,170,2011-10-06 20:55:00
4:55 PM,83.7,44.1,25,30.01,10.0,SSE,13.8,27.6,N/A,,Clear,150,2011-10-06 21:55:00
5:55 PM,80.8,45.1,28,30.02,10.0,SSE,11.5,-,N/A,,Clear,150,2011-10-06 22:55:00
6:55 PM,76.3,46.4,35,30.02,10.0,SE,9.2,-,N/A,,Clear,140,2011-10-06 23:55:00
7:55 PM,72.9,49.1,43,30.04,10.0,SSE,8.1,-,N/A,,Clear,150,2011-10-07 00:55:00
8:55 PM,70.3,50.5,49,30.04,10.0,SE,11.5,-,N/A,,Clear,140,2011-10-07 01:55:00
9:55 PM,70.2,52.3,53,30.05,10.0,SE,11.5,19.6,N/A,,Clear,140,2011-10-07 02:55:00
10:55 PM,70.7,52.2,52,30.05,10.0,SSE,12.7,21.9,N/A,,Clear,160,2011-10-07 03:55:00
11:55 PM,69.3,52.2,54,30.05,10.0,SSE,11.5,19.6,N/A,,Clear,160,2011-10-07 04:55:00